Winnemucca, NV

5:10 PM PDT on May 27, 2018 (GMT -0700)
Winnemucca Municipal

Weather History for KWMC - August, 2013

Change the Weather History Date:

Sunday, August 25, 2013

  Actual Average Record
Temperature  
Mean Temperature 66 °F 68 °F  
Max Temperature 88 °F 89 °F 99 °F (1934)
Min Temperature 43 °F 47 °F 31 °F (1960)
Degree Days  
Heating Degree Days 0 1  
Month to date heating degree days 0 9  
Since 1 June heating degree days 70 124  
Since 1 July heating degree days 0 19  
Cooling Degree Days 1 4  
Month to date cooling degree days 151 157  
Year to date cooling degree days 653 490  
Since 1 June cooling degree days 652 479  
Growing Degree Days 16 (Base 50)    
Moisture  
Dew Point 30 °F    
Average Humidity 36    
Maximum Humidity 58    
Minimum Humidity 13    
Precipitation  
Precipitation 0.00 in 0.01 in 0.36 in (1920)
Month to date precipitation 0.13 0.14  
Year to date precipitation 2.39 5.32  
Snow  
Snow 0.00 in 0.00 in 0.00 in (1877)
Month to date snowfall 0.0 0.0  
Since 1 June snowfall T T  
Since 1 July snowfall T 0.0  
Snow Depth 0.00 in    
Sea Level Pressure  
Sea Level Pressure 29.88 in    
Wind  
Wind Speed 7 mph (SSW)    
Max Wind Speed 23 mph    
Max Gust Speed 32 mph    
Visibility 7 miles    
Events      
T = Trace of Precipitation, MM = Missing Value Source: NWS Daily Summary

Daily Weather History Graph

Daily Weather History Graph

Search for Another Location

Airport or City:

Astronomy

Aug. 25, 2013 Rise Set
Actual Time 6:11 AM PDT 7:34 PM PDT
Civil Twilight 5:42 AM PDT 8:02 PM PDT
Nautical Twilight 5:08 AM PDT 8:37 PM PDT
Astronomical Twilight 4:32 AM PDT 9:13 PM PDT
Moon 10:05 PM PDT (8/25) 11:20 AM PDT (8/25)
Length of Visible Light 14h 19m
Length of Day
13h 22m
Waning Gibbous, 75% of the Moon is Illuminated
Aug 25
Waning Gibbous
Aug 28
Last Quarter
Sep 5
New
Sep 12
First Quarter
Sep 19
Full

Hourly Weather History & Observations

Time (PDT) Temp. Windchill Dew Point Humidity Pressure Visibility Wind Dir Wind Speed Gust Speed Precip Events Conditions
12:56 AM 64.0 °F - 30.9 °F 29% 29.83 in 8.0 mi Calm Calm - N/A   Clear
1:56 AM 55.0 °F - 30.9 °F 40% 29.84 in 8.0 mi Calm Calm - N/A   Clear
2:56 AM 50.0 °F - 27.0 °F 41% 29.86 in 6.0 mi Calm Calm - N/A   Haze
3:56 AM 46.9 °F - 28.0 °F 48% 29.87 in 6.0 mi SSE 5.8 mph - N/A   Haze
4:56 AM 46.9 °F - 28.0 °F 48% 29.88 in 6.0 mi ESE 5.8 mph - N/A   Haze
5:56 AM 45.0 °F 43.5 °F 28.0 °F 52% 29.89 in 6.0 mi ESE 3.5 mph - N/A   Haze
6:56 AM 45.0 °F 41.8 °F 30.0 °F 56% 29.92 in 5.0 mi SSE 5.8 mph - N/A   Haze
7:56 AM 55.0 °F - 30.9 °F 40% 29.93 in 7.0 mi South 3.5 mph - N/A   Clear
8:56 AM 64.0 °F - 33.1 °F 31% 29.93 in 7.0 mi East 3.5 mph - N/A   Clear
9:56 AM 73.0 °F - 32.0 °F 22% 29.91 in 10.0 mi NW 5.8 mph - N/A   Clear
10:56 AM 75.9 °F - 28.0 °F 17% 29.91 in 10.0 mi NW 5.8 mph - N/A   Clear
11:56 AM 78.1 °F - 28.9 °F 17% 29.88 in 10.0 mi Variable 4.6 mph - N/A   Clear
12:56 PM 84.0 °F - 30.0 °F 14% 29.84 in 9.0 mi Variable 6.9 mph - N/A   Clear
1:56 PM 84.9 °F - 33.1 °F 16% 29.84 in 9.0 mi SSW 8.1 mph 18.4 mph N/A   Clear
2:56 PM 86.0 °F - 30.9 °F 14% 29.83 in 6.0 mi West 16.1 mph 24.2 mph N/A   Haze
3:56 PM 86.0 °F - 30.0 °F 13% 29.82 in 7.0 mi WSW 12.7 mph 20.7 mph N/A   Partly Cloudy
4:56 PM 82.9 °F - 26.1 °F 13% 29.82 in 6.0 mi West 20.7 mph 29.9 mph N/A   Haze
5:56 PM 81.0 °F - 27.0 °F 14% 29.83 in 4.0 mi West 15.0 mph 24.2 mph N/A   Haze
6:56 PM 75.9 °F - 33.1 °F 21% 29.86 in 6.0 mi West 13.8 mph - N/A   Haze
7:56 PM 71.1 °F - 32.0 °F 24% 29.89 in 7.0 mi WSW 4.6 mph - N/A   Overcast
8:56 PM 66.9 °F - 33.1 °F 28% 29.90 in 8.0 mi NE 3.5 mph - N/A   Overcast
9:56 PM 64.0 °F - 34.0 °F 33% 29.90 in 7.0 mi East 3.5 mph - N/A   Clear
10:56 PM 57.9 °F - 33.1 °F 39% 29.92 in 7.0 mi East 3.5 mph - N/A   Scattered Clouds
11:56 PM 51.1 °F - 30.0 °F 44% 29.94 in 7.0 mi WSW 3.5 mph - N/A   Overcast